Location: Unspecified
(48.6511°N, 0.0000°E)
Time: 20:50:44
(UTC+00:00)

CZ-6A DEB - Visible Passes

Search period start: 04 April 2026 00:00
Search period end: 14 April 2026 00:00
Orbit: 688 x 801 km, 89.0° (Epoch: 29 March)

Date Brightness Start Highest point End Pass type
(mag) Time Alt. Az. Time Alt. Az. Time Alt. Az.
4 Apr ? 19:19:01 10° NW 19:20:40 12° WNW 19:22:20 10° W visible
5 Apr ? 04:53:18 10° SE 04:57:42 32° E 05:02:00 10° NNE visible
6 Apr ? 04:12:04 10° ESE 04:14:55 16° ENE 04:17:44 10° NE visible
8 Apr ? 04:24:10 10° SE 04:28:01 24° ENE 04:31:48 10° NNE visible
9 Apr ? 03:44:05 10° E 03:45:18 11° ENE 03:46:31 10° NE visible
10 Apr ? 04:36:42 10° SE 04:41:08 36° E 04:45:30 10° NNE visible
11 Apr ? 03:55:13 10° ESE 03:58:17 17° ENE 04:01:19 10° NE visible
13 Apr ? 04:07:21 10° SE 04:11:17 26° ENE 04:15:11 10° NNE visible
